^^
Garrymore Weather Station Historical Data
Daily Summary for October 27, 2020 Units:  Metric    English   Both
Daily Weekly Monthly Yearly Custom
  High: Low: Average:
Temperature: 11 °C 6 °C 8.2 °C
Dew Point: 9 °C -21 °C 4.1 °C
Humidity: 93% 10% 82%
Wind Speed: 93km/h 0km/h 11.6km/h
Wind Gust: 93km/h - -
Wind- - South
Pressure: 1000.61 hPa 990.42 hPa -
Precipitation: 2.39 mm    
Historical Graphs
 
 
Tabular Data for October 27, 2020
Time Temperature Dew Point Pressure Wind Wind Speed Wind Gust Humidity Rainfall Rate (Hourly) solar
00:00 6 °C 3 °C 1000.61 hPa SSE 8 km/h 13 km/h 82% 0 mm 0 W/m2
00:05 6 °C 3 °C 1000.41 hPa SSE 5 km/h 13 km/h 82% 0 mm 0 W/m2
00:10 6 °C 3 °C 1000.41 hPa S 10 km/h 14 km/h 82% 0 mm 0 W/m2
00:15 6 °C 3 °C 1000.51 hPa S 5 km/h 11 km/h 82% 0 mm 0 W/m2
00:20 6 °C 3 °C 1000.31 hPa SSE 5 km/h 11 km/h 82% 0 mm 0 W/m2
00:25 6 °C 3 °C 1000.2 hPa SSE 8 km/h 13 km/h 82% 0 mm 0 W/m2
00:30 6 °C 3 °C 1000.1 hPa SSE 10 km/h 14 km/h 82% 0 mm 0 W/m2
00:35 6 °C 3 °C 1000.1 hPa SSE 8 km/h 14 km/h 83% 0 mm 0 W/m2
00:40 6 °C 3 °C 999.9 hPa SSE 5 km/h 11 km/h 83% 0 mm 0 W/m2
00:45 6 °C 3 °C 999.7 hPa SSE 5 km/h 10 km/h 83% 0 mm 0 W/m2
00:50 6 °C 3 °C 999.8 hPa SSE 5 km/h 10 km/h 83% 0 mm 0 W/m2
00:55 6 °C 3 °C 999.63 hPa SSE 5 km/h 8 km/h 83% 0 mm 0 W/m2
01:00 6 °C 3 °C 999.59 hPa SSE 2 km/h 8 km/h 83% 0 mm 0 W/m2
01:05 6 °C 3 °C 999.22 hPa SSE 2 km/h 3 km/h 83% 0 mm 0 W/m2
01:10 6 °C 3 °C 999.39 hPa SSE 2 km/h 5 km/h 83% 0 mm 0 W/m2
01:15 6 °C 3 °C 999.19 hPa SE 8 km/h 11 km/h 83% 0 mm 0 W/m2
01:20 6 °C 3 °C 999.02 hPa SSE 10 km/h 13 km/h 83% 0 mm 0 W/m2
01:25 6 °C 3 °C 998.78 hPa SSE 10 km/h 14 km/h 83% 0 mm 0 W/m2
01:30 6 °C 4 °C 998.78 hPa SSE 8 km/h 14 km/h 84% 0 mm 0 W/m2
01:35 6 °C 4 °C 998.61 hPa SSE 5 km/h 11 km/h 84% 0 mm 0 W/m2
01:40 6 °C 4 °C 998.61 hPa SSE 5 km/h 13 km/h 85% 0 mm 0 W/m2
01:45 6 °C 4 °C 998.41 hPa SSE 2 km/h 8 km/h 85% 0 mm 0 W/m2
01:50 6 °C 4 °C 998.1 hPa SSE 3 km/h 6 km/h 85% 0 mm 0 W/m2
01:55 6 °C 4 °C 998.21 hPa SSE 2 km/h 6 km/h 85% 0.3 mm 0 W/m2
02:00 6 °C 4 °C 997.9 hPa E 2 km/h 5 km/h 86% 0 mm 0 W/m2
02:05 6 °C 4 °C 997.53 hPa Calm   5 km/h 86% 0 mm 0 W/m2
02:10 6 °C 4 °C 997.7 hPa Calm   5 km/h 86% 0 mm 0 W/m2
02:15 6 °C 4 °C 997.49 hPa Calm   6 km/h 86% 0 mm 0 W/m2
02:20 6 °C 4 °C 997.29 hPa ENE 5 km/h 8 km/h 86% 0 mm 0 W/m2
02:25 6 °C 4 °C 997.09 hPa ENE 2 km/h 8 km/h 86% 0 mm 0 W/m2
02:30 6 °C 4 °C 996.92 hPa ENE 2 km/h 6 km/h 86% 0 mm 0 W/m2
02:35 6 °C 4 °C 996.89 hPa ENE 2 km/h 6 km/h 86% 0 mm 0 W/m2
02:40 6 °C 4 °C 996.51 hPa ESE 5 km/h 10 km/h 86% 0 mm 0 W/m2
02:45 6 °C 4 °C 996.51 hPa SE 2 km/h 10 km/h 86% 0 mm 0 W/m2
02:50 7 °C 4 °C 996.41 hPa E 5 km/h 10 km/h 87% 0 mm 0 W/m2
02:55 6 °C 4 °C 996.21 hPa ESE 5 km/h 13 km/h 87% 0 mm 0 W/m2
03:00 7 °C 4 °C 996.11 hPa ESE 10 km/h 13 km/h 87% 0 mm 0 W/m2
03:05 7 °C 4 °C 995.7 hPa SE 2 km/h 13 km/h 87% 0 mm 0 W/m2
03:10 7 °C 5 °C 995.6 hPa S 8 km/h 10 km/h 87% 0 mm 0 W/m2
03:15 7 °C 5 °C 995.5 hPa E 8 km/h 13 km/h 88% 0 mm 0 W/m2
03:20 7 °C 5 °C 995.4 hPa ESE 3 km/h 13 km/h 88% 0 mm 0 W/m2
03:25 7 °C 5 °C 995.29 hPa SSE 5 km/h 10 km/h 88% 0 mm 0 W/m2
03:30 7 °C 5 °C 995.02 hPa SE 11 km/h 18 km/h 88% 0 mm 0 W/m2
03:35 7 °C 5 °C 994.99 hPa SE 5 km/h 16 km/h 88% 0 mm 0 W/m2
03:40 7 °C 5 °C 994.72 hPa SE 10 km/h 13 km/h 87% 0 mm 0 W/m2
03:45 7 °C 5 °C 994.31 hPa ESE 10 km/h 16 km/h 87% 0 mm 0 W/m2
03:50 7 °C 5 °C 994.38 hPa SE 10 km/h 14 km/h 88% 0 mm 0 W/m2
03:55 7 °C 5 °C 994.14 hPa SSE 5 km/h 13 km/h 88% 0 mm 0 W/m2
04:00 7 °C 6 °C 994.01 hPa SE 5 km/h 18 km/h 89% 0 mm 0 W/m2
04:05 7 °C 6 °C 994.01 hPa SE 10 km/h 21 km/h 89% 0 mm 0 W/m2
04:10 8 °C 6 °C 993.6 hPa SSE 8 km/h 21 km/h 90% 0 mm 0 W/m2
04:15 8 °C 6 °C 993.6 hPa SSE 8 km/h 18 km/h 90% 0 mm 0 W/m2
04:20 8 °C 6 °C 993.6 hPa SSE 5 km/h 16 km/h 90% 0 mm 0 W/m2
04:25 8 °C 6 °C 993.5 hPa SE 10 km/h 18 km/h 91% 0 mm 0 W/m2
04:30 8 °C 6 °C 993.3 hPa SSE 10 km/h 23 km/h 91% 0 mm 0 W/m2
04:35 8 °C 7 °C 993.09 hPa S 13 km/h 21 km/h 91% 0 mm 0 W/m2
04:40 8 °C 7 °C 993.09 hPa SSE 11 km/h 23 km/h 92% 0 mm 0 W/m2
04:45 8 °C 7 °C 992.89 hPa SSE 10 km/h 23 km/h 91% 0 mm 0 W/m2
04:50 8 °C 7 °C 992.82 hPa SSE 8 km/h 14 km/h 91% 0 mm 0 W/m2
04:55 8 °C 7 °C 992.52 hPa SE 5 km/h 13 km/h 91% 0 mm 0 W/m2
05:00 8 °C 7 °C 992.42 hPa SE 5 km/h 13 km/h 91% 0 mm 0 W/m2
05:05 8 °C 7 °C 992.52 hPa SSE 8 km/h 13 km/h 91% 0 mm 0 W/m2
05:10 8 °C 7 °C 992.38 hPa S 5 km/h 11 km/h 92% 0 mm 0 W/m2
05:15 9 °C 7 °C 992.21 hPa SSE 2 km/h 10 km/h 92% 0 mm 0 W/m2
05:20 9 °C 7 °C 992.28 hPa SE 5 km/h 10 km/h 92% 0 mm 0 W/m2
05:25 9 °C 7 °C 991.81 hPa SSE 2 km/h 10 km/h 92% 0 mm 0 W/m2
05:30 9 °C 8 °C 991.81 hPa Calm   10 km/h 92% 0 mm 0 W/m2
05:35 9 °C 8 °C 991.81 hPa SSE 2 km/h 10 km/h 92% 0 mm 0 W/m2
05:40 9 °C 8 °C 991.81 hPa Calm   8 km/h 92% 0 mm 0 W/m2
05:45 9 °C 8 °C 991.67 hPa Calm   8 km/h 91% 0 mm 0 W/m2
05:50 9 °C 8 °C 991.6 hPa Calm   5 km/h 92% 0 mm 0 W/m2
05:55 9 °C 8 °C 991.6 hPa Calm   6 km/h 92% 0 mm 0 W/m2
06:00 9 °C 8 °C 991.5 hPa Calm   5 km/h 92% 0 mm 0 W/m2
06:05 9 °C 8 °C 991.3 hPa Calm   5 km/h 92% 0 mm 0 W/m2
06:10 9 °C 8 °C 991.3 hPa Calm   5 km/h 92% 0 mm 0 W/m2
06:15 9 °C 8 °C 990.89 hPa Calm   5 km/h 92% 0 mm 0 W/m2
06:20 9 °C 8 °C 990.93 hPa Calm   6 km/h 92% 0 mm 0 W/m2
06:25 9 °C 8 °C 990.89 hPa Calm   6 km/h 92% 0 mm 0 W/m2
06:30 9 °C 8 °C 990.69 hPa Calm   6 km/h 92% 0 mm 0 W/m2
06:35 9 °C 8 °C 990.89 hPa Calm   5 km/h 92% 0 mm 0 W/m2
06:40 9 °C 8 °C 990.48 hPa Calm   5 km/h 92% 0 mm 0 W/m2
06:45 9 °C 8 °C 990.48 hPa Calm   5 km/h 92% 0 mm 0 W/m2
06:50 10 °C 8 °C 990.89 hPa Calm   5 km/h 92% 0 mm 0 W/m2
06:55 10 °C 8 °C 990.42 hPa Calm   3 km/h 92% 0 mm 0 W/m2
07:00 10 °C 9 °C 990.59 hPa Calm   3 km/h 93% 0 mm 0 W/m2
07:05 10 °C 9 °C 990.69 hPa Calm   2 km/h 93% 0 mm 0 W/m2
07:10 10 °C 9 °C 990.52 hPa Calm     93% 0 mm 0 W/m2
07:15 10 °C 9 °C 990.59 hPa Calm     93% 0 mm 0 W/m2
07:20 10 °C 9 °C 990.42 hPa S 2 km/h 5 km/h 93% 0 mm 0 W/m2
07:25 10 °C 9 °C 990.42 hPa Calm   5 km/h 93% 0 mm 0 W/m2
07:30 10 °C 9 °C 990.79 hPa Calm   3 km/h 93% 0 mm 0 W/m2
07:35 10 °C 9 °C 990.62 hPa Calm   3 km/h 93% 0 mm 0 W/m2
07:40 10 °C 9 °C 990.62 hPa SSW 2 km/h 5 km/h 93% 0 mm 0 W/m2
07:45 10 °C 9 °C 990.79 hPa Calm   5 km/h 93% 0 mm 0 W/m2
07:50 10 °C 9 °C 990.69 hPa Calm   5 km/h 93% 0 mm 0 W/m2
07:55 10 °C 9 °C 990.79 hPa Calm   5 km/h 93% 0 mm 0 W/m2
08:00 10 °C 9 °C 990.79 hPa Calm     93% 0 mm 0 W/m2
08:05 10 °C -6 °C 990.59 hPa S 69 km/h 93 km/h 32% 0 mm 0 W/m2
08:10 10 °C -21 °C 990.82 hPa S 93 km/h 93 km/h 10% 0 mm 0 W/m2
08:15 10 °C -21 °C 990.72 hPa S 93 km/h 93 km/h 10% 0 mm 0 W/m2
08:20 10 °C -21 °C 990.82 hPa S 93 km/h 93 km/h 10% 0 mm 0 W/m2
08:25 10 °C 4 °C 991.2 hPa S 24 km/h 93 km/h 69% 0.61 mm 0 W/m2
08:30 9 °C 8 °C 990.99 hPa Calm   5 km/h 93% 1.5 mm 0 W/m2
08:35 9 °C 8 °C 991.2 hPa NW 2 km/h 5 km/h 92% 0 mm 0 W/m2
08:40 9 °C 8 °C 991.09 hPa NW 2 km/h 5 km/h 92% 0 mm 0 W/m2
08:45 9 °C 8 °C 991.3 hPa Calm   3 km/h 92% 0 mm 0 W/m2
08:50 9 °C 8 °C 991.4 hPa Calm   3 km/h 93% 0 mm 0 W/m2
08:55 9 °C 8 °C 991.5 hPa Calm   3 km/h 93% 0 mm 0 W/m2
09:00 9 °C 8 °C 991.4 hPa Calm   3 km/h 93% 0 mm 0 W/m2
09:05 9 °C 8 °C 991.3 hPa Calm   3 km/h 93% 0 mm 0 W/m2
09:10 9 °C 8 °C 991.4 hPa SSW 2 km/h 3 km/h 93% 0 mm 0 W/m2
09:15 9 °C 8 °C 991.4 hPa WNW 2 km/h 3 km/h 93% 0 mm 0 W/m2
09:20 9 °C 8 °C 991.5 hPa NW 2 km/h 92 km/h 93% 0 mm 0 W/m2
09:25 9 °C -21 °C 991.33 hPa NW 93 km/h 93 km/h 10% 0 mm 0 W/m2
09:30 9 °C -21 °C 991.5 hPa NW 93 km/h 93 km/h 10% 0 mm 0 W/m2
09:35 9 °C -21 °C 991.6 hPa NW 93 km/h 93 km/h 10% 0 mm 0 W/m2
09:40 9 °C -21 °C 991.4 hPa NW 93 km/h 93 km/h 10% 0 mm 0 W/m2
09:45 9 °C -21 °C 991.4 hPa NW 93 km/h 93 km/h 10% 0 mm 0 W/m2
09:50 9 °C -21 °C 991.6 hPa NW 93 km/h 93 km/h 10% 0 mm 0 W/m2
09:55 9 °C 8 °C 991.7 hPa NW 2 km/h 93 km/h 93% 0 mm 0 W/m2
10:00 9 °C 8 °C 991.7 hPa W 5 km/h 10 km/h 91% 0 mm 0 W/m2
10:05 9 °C 8 °C 991.81 hPa WNW 13 km/h 18 km/h 91% 0 mm 0 W/m2
10:10 9 °C 8 °C 991.81 hPa W 14 km/h 24 km/h 91% 0 mm 0 W/m2
10:15 9 °C 8 °C 991.91 hPa SW 14 km/h 24 km/h 91% 0 mm 0 W/m2
10:20 9 °C -21 °C 991.81 hPa SW 93 km/h 93 km/h 10% 0 mm 0 W/m2
10:25 10 °C 8 °C 991.97 hPa WSW 13 km/h 93 km/h 89% 0 mm 0 W/m2
10:30 10 °C 8 °C 992.01 hPa W 10 km/h 19 km/h 87% 0 mm 0 W/m2
10:35 10 °C 7 °C 992.18 hPa NW 8 km/h 16 km/h 84% 0 mm 0 W/m2
10:40 10 °C 7 °C 992.01 hPa NE 8 km/h 13 km/h 84% 0 mm 0 W/m2
10:45 10 °C 7 °C 992.01 hPa E 10 km/h 21 km/h 81% 0 mm 0 W/m2
10:50 10 °C 7 °C 992.01 hPa SSW 10 km/h 23 km/h 81% 0 mm 0 W/m2
10:55 10 °C 7 °C 992.28 hPa SSW 11 km/h 24 km/h 81% 0 mm 0 W/m2
11:00 10 °C 7 °C 992.48 hPa NNW 10 km/h 24 km/h 81% 0 mm 0 W/m2
11:05 10 °C 7 °C 992.31 hPa W 11 km/h 16 km/h 80% 0 mm 0 W/m2
11:10 10 °C 7 °C 992.31 hPa SW 11 km/h 21 km/h 80% 0 mm 0 W/m2
11:15 11 °C 7 °C 992.42 hPa S 8 km/h 21 km/h 76% 0 mm 0 W/m2
11:20 11 °C 7 °C 992.52 hPa SE 13 km/h 23 km/h 73% 0 mm 0 W/m2
Garrymore Weather Station, Geashill, Tullamore, Offaly, Ireland
Compliments of Weather Underground - 2 mb